Location: St. Louis
(38.6270°N, 90.1994°W)
Time: 08:34:11
(UTC-06:00)

A-11 Canister half - Pass Details

Date: 12 December 2021
Orbit: 1524 x 1684 km, 47.3° (Epoch: 17 January)

Event Time Altitude Azimuth Distance (km) Brightness Sun altitude
Rises 00:07:11 0° 252° (WSW) 4,904 - -74.2°
Reaches altitude 10° 00:10:22 10° 255° (WSW) 3,929 - -74.1°
Maximum altitude 00:20:28 69° 338° (NNW) 1,785 - -73.5°
Drops below altitude 10° 00:30:36 10° 61° (ENE) 3,932 - -72.7°
Exits shadow 00:33:36 - 64° (ENE) 4,847 11.8 -72.4°
Sets 00:33:48 0° 64° (ENE) 4,908 11.8 -72.4°
